Location: Hilton Head Island
(32.2163°N, 80.7526°W)
Time: 17:53:51
(UTC-04:00)

Altair - Pass Details

Date: 18 February 2026
Orbit: 1502 x 1682 km, 47.2° (Epoch: 10 March)

Event Time Altitude Azimuth Distance (km) Brightness Sun altitude
Exits shadow 05:58:27 18° 278° (W) 3,085 8.4 -14.2°
Maximum altitude 06:04:56 42° 340° (NNW) 2,077 8.0 -12.8°
Drops below altitude 10° 06:13:47 10° 48° (NE) 3,758 10.2 -11.0°
Sets 06:17:11 0° 56° (NE) 4,769 10.9 -10.2°
